Wind_Speed
19 19 19 19 18 20 22 24 25 25 25 26 28 29 31 32 34 35 36 37 39 40 42 43 44 46 47 48 48 49 49 50 52 53 55 57 59 59 60 60 59 58 58 58
19 19 19 19 19 20 22 23 24 25 25 27 28 29 30 31 32 33 34 36 37 39 42 43 44 46 47 49 50 50 49 50 51 53 54 55 56 59 59 60 60 59 59 59
18 18 19 19 19 20 21 22 23 24 25 26 27 28 28 29 30 31 32 34 35 36 38 41 43 45 46 47 49 50 50 50 51 52 53 55 55 57 58 59 59 59 59 58
18 18 18 18 18 19 20 20 22 23 23 24 25 26 27 28 28 29 30 32 33 35 36 38 40 43 45 46 47 49 50 51 51 52 53 54 55 56 57 58 58 58 58 58
20 19 19 17 18 19 19 19 20 21 21 22 24 24 25 27 28 30 31 31 32 33 35 36 38 40 42 45 46 47 49 51 51 51 53 54 55 56 56 58 58 56 56 57
21 21 20 19 19 19 19 19 19 20 20 21 21 23 23 25 26 28 29 29 30 31 32 33 35 37 39 41 44 46 47 50 51 52 52 54 55 56 57 58 58 56 57 56
22 22 22 21 20 20 19 19 19 19 20 20 20 21 22 23 24 26 27 28 29 30 30 31 33 34 36 38 40 43 45 47 49 50 51 52 54 55 56 56 58 58 57 56
23 23 22 22 22 21 21 20 19 19 19 19 19 20 20 22 23 24 25 26 28 29 29 30 32 33 34 35 37 40 43 45 47 49 49 50 52 54 54 55 56 57 56 55
25 24 24 24 23 23 22 21 20 20 20 20 19 20 20 21 21 22 24 25 26 27 28 29 30 31 32 34 36 37 39 42 44 46 48 48 50 51 52 53 54 55 56 56
25 25 25 25 24 24 23 23 22 21 22 22 21 21 21 21 21 21 22 23 23 24 25 26 27 28 30 31 33 34 36 38 40 43 45 47 47 49 50 51 52 53 55 55
25 25 25 25 25 25 24 23 23 23 22 23 23 22 21 21 21 21 21 21 22 22 23 24 25 26 26 27 29 31 32 34 36 39 42 44 46 48 48 49 49 50 52 53
25 25 25 25 25 25 24 23 23 23 23 23 24 23 22 22 21 21 21 21 22 22 22 23 24 24 25 25 26 28 28 31 33 35 37 40 43 45 47 47 47 47 49 49
26 25 25 25 24 24 24 24 24 24 24 24 24 23 23 22 22 21 21 21 22 22 22 22 23 23 24 25 25 26 27 28 29 31 33 36 39 41 43 45 45 46 47 48
26 25 24 24 24 24 24 24 24 24 24 24 24 23 23 22 22 21 21 21 21 21 21 21 21 22 23 24 24 24 25 26 27 28 30 32 34 37 39 41 43 44 45 47
25 25 24 24 24 24 24 25 25 24 24 23 23 22 21 21 21 21 21 21 21 21 21 20 20 20 21 20 20 21 22 23 24 26 27 29 32 34 37 39 41 42 43 44
25 24 24 24 24 24 24 24 24 24 23 23 22 22 21 21 21 21 21 20 20 21 21 20 20 20 19 18 18 18 20 21 23 24 26 28 29 31 34 36 38 39 41 42
25 24 24 24 24 24 24 24 24 23 23 22 22 22 21 21 21 21 20 20 20 20 20 20 20 20 19 19 19 19 20 20 21 22 24 25 28 30 32 33 35 37 39 40
26 25 25 25 24 24 24 24 24 24 23 22 22 22 21 21 21 21 21 21 20 20 20 20 20 20 20 20 20 20 20 20 21 22 22 23 24 26 28 30 32 35 36 38
26 25 25 25 25 25 24 25 24 23 23 22 22 22 22 22 22 22 22 21 21 21 21 21 21 21 20 20 21 21 21 21 22 22 23 23 24 24 25 27 28 30 32 34
27 26 26 26 25 25 25 25 25 24 23 23 22 22 22 22 22 21 21 21 21 21 21 21 21 21 21 21 21 21 21 21 22 22 23 23 24 25 25 26 27 28 29 31
27 26 26 26 26 26 26 26 25 25 24 23 22 22 22 22 22 22 22 22 22 22 21 21 21 21 21 21 21 21 21 21 21 21 22 22 23 24 25 26 27 28 29 30
27 27 26 26 26 26 26 25 25 24 24 23 22 21 21 21 22 22 22 22 21 21 21 21 21 21 21 21 21 21 21 21 21 22 22 22 23 24 25 26 26 27 28 29
28 27 27 26 26 26 26 26 25 24 22 22 21 21 21 21 21 21 21 21 21 20 21 21 21 21 21 21 22 22 23 23 23 23 23 23 24 24 24 25 26 27 28 29
28 27 27 27 26 26 26 25 24 23 22 21 20 19 19 19 20 20 20 20 20 20 20 20 20 21 21 21 22 22 23 23 24 24 25 25 25 25 25 25 26 27 27 28
28 27 27 27 26 26 26 25 24 23 22 21 20 19 18 18 19 19 19 19 20 20 20 20 20 20 21 21 21 22 22 23 23 23 24 24 24 25 25 25 25 25 26 27
27 27 27 27 27 26 25 24 24 23 22 21 20 19 18 18 18 18 18 19 19 20 20 20 20 21 21 21 21 21 21 21 21 21 22 22 22 23 23 24 24 24 25 26
27 27 27 27 27 26 25 25 24 23 22 21 20 19 18 18 18 17 18 18 18 18 19 19 20 20 20 20 21 20 20 20 20 20 20 21 21 21 22 23 23 24 25 26
Wind_Direction
306 301 295 289 281 278 275 271 270 268 266 265 264 262 259 256 254 252 249 248 247 245 244 243 243 242 241 241 240 239 239 239 238 239 239 238 237 236 236 237 238 239 239 240
308 303 298 291 284 281 279 274 272 271 268 267 265 264 263 259 255 254 253 251 250 248 246 245 245 243 242 242 241 241 240 240 239 239 239 238 238 237 237 238 238 239 239 240
312 307 301 295 290 287 282 276 273 271 270 268 265 266 264 260 258 257 255 253 252 251 250 248 247 246 244 244 243 243 242 241 240 239 239 239 238 238 237 237 237 238 239 240
317 314 310 306 298 293 290 284 278 275 272 268 265 264 263 260 259 259 258 256 254 254 253 252 250 248 247 246 245 244 244 244 242 241 240 240 239 238 237 236 236 238 240 241
317 316 315 312 306 301 297 291 285 280 275 271 268 265 264 262 260 261 260 259 258 257 256 254 253 251 249 248 247 246 244 243 242 242 241 240 239 238 237 237 237 238 240 241
316 314 315 314 311 307 302 297 291 287 283 278 274 269 265 264 263 261 261 260 259 259 258 257 255 253 252 250 248 247 246 244 243 242 242 241 240 239 239 238 238 238 239 241
314 311 312 311 310 307 303 301 297 291 289 286 281 275 270 267 266 265 264 262 260 260 260 258 256 255 253 251 250 248 246 245 243 243 242 241 240 240 240 240 239 239 239 241
312 312 312 308 306 304 302 300 297 293 291 289 285 280 276 273 270 268 267 266 264 262 262 261 259 257 256 253 253 250 247 245 245 244 242 241 241 240 241 241 240 239 240 241
311 311 309 306 303 302 301 298 296 293 290 288 285 282 280 278 275 272 270 269 268 265 264 263 262 261 259 256 255 253 250 248 246 244 243 241 240 240 240 241 240 240 240 241
308 307 306 304 302 301 300 298 295 293 290 286 284 283 282 280 278 276 275 273 272 270 267 264 263 262 261 259 257 256 253 251 248 245 243 241 241 240 240 241 241 241 241 241
308 305 303 303 302 301 299 298 294 291 290 287 284 284 283 281 280 280 278 276 274 271 268 265 264 263 263 260 258 256 254 252 249 246 244 243 242 241 240 240 240 240 240 240
311 307 304 303 302 301 300 298 295 291 289 288 286 283 282 280 280 280 280 278 276 274 271 268 266 266 265 263 260 257 254 252 251 249 247 245 243 242 241 240 241 241 241 241
312 310 308 305 304 302 300 299 296 294 291 288 287 284 281 279 279 279 280 280 278 276 272 271 270 268 265 263 260 257 255 255 253 250 248 246 245 243 243 242 242 242 242 242
312 311 309 307 305 303 301 300 298 295 292 289 286 284 281 279 278 279 280 280 279 276 273 271 271 270 267 263 261 259 256 254 253 252 250 247 244 243 242 241 242 242 242 242
313 311 310 309 307 306 304 301 300 297 293 290 286 284 281 279 279 278 279 280 279 276 273 271 272 271 269 265 262 259 256 254 254 253 251 248 246 244 243 244 243 243 242 243
316 313 311 309 308 306 305 303 301 298 295 291 287 283 281 280 279 279 279 279 279 276 274 271 270 269 268 265 264 261 259 257 256 255 252 250 248 247 246 245 244 243 243 243
318 314 311 309 307 306 305 304 303 300 295 291 288 284 281 279 279 278 278 278 277 276 274 271 268 266 265 266 267 266 264 263 260 257 255 252 251 249 248 247 246 244 244 244
319 316 313 312 309 307 307 306 305 301 296 290 287 285 282 280 278 277 277 277 276 275 274 271 268 266 266 267 267 267 266 265 262 260 259 257 254 252 250 249 248 247 246 245
321 318 316 315 313 311 309 307 306 303 298 292 287 283 281 280 279 277 276 275 275 275 273 270 267 266 266 266 266 266 266 265 264 263 262 260 258 257 254 252 251 250 248 247
323 321 319 318 316 314 312 310 308 305 301 296 289 283 280 279 278 278 276 275 274 274 272 271 269 268 266 266 266 267 268 267 264 262 261 261 260 258 257 255 254 253 251 249
324 323 321 320 319 317 315 312 309 305 302 298 292 285 281 278 277 277 277 276 274 272 271 269 268 267 267 267 268 268 268 267 265 264 262 261 260 258 257 255 253 252 250 248
323 323 322 321 320 319 317 315 312 308 303 299 295 289 283 280 278 277 276 276 274 272 270 269 268 268 268 268 268 268 267 266 265 265 264 262 261 260 257 255 254 252 250 248
322 322 321 321 320 320 319 317 314 311 307 303 298 292 286 283 280 278 277 276 274 273 271 270 269 269 269 269 269 268 268 268 267 266 265 264 263 262 260 258 256 254 251 250
321 321 321 321 321 320 319 318 316 313 310 306 301 295 290 286 282 280 278 277 274 272 271 270 269 269 269 270 270 270 269 269 268 267 266 264 263 263 262 260 258 256 254 252
320 320 320 320 320 321 321 319 317 315 312 309 303 297 293 289 286 283 281 278 274 272 271 269 269 268 269 270 270 270 270 270 269 268 267 266 264 263 262 261 259 257 255 254
319 320 320 320 320 320 320 319 318 316 314 311 306 300 295 291 289 286 283 280 278 275 272 270 270 270 270 271 271 271 271 271 270 268 267 266 265 263 261 259 258 257 256 255
319 319 319 320 320 320 319 318 318 316 315 312 309 303 298 295 292 288 284 282 280 278 275 273 272 272 271 272 272 272 272 270 269 268 267 266 265 263 262 260 259 258 257 257
Height
5542 5539 5537 5536 5535 5533 5532 5531 5530 5530 5530 5530 5528 5528 5528 5528 5529 5529 5531 5533 5535 5537 5539 5542 5544 5548 5551 5555 5560 5564 5568 5573 5577 5581 5586 5592 5598 5604 5611 5617 5623 5628 5634 5639
5539 5535 5533 5531 5529 5527 5526 5525 5524 5523 5523 5522 5520 5520 5520 5520 5520 5521 5522 5523 5524 5526 5528 5531 5533 5536 5540 5543 5547 5551 5556 5560 5563 5568 5573 5578 5583 5589 5596 5602 5608 5614 5620 5626
5535 5532 5529 5527 5524 5521 5520 5518 5517 5516 5516 5514 5513 5512 5512 5512 5512 5512 5513 5514 5515 5516 5517 5519 5522 5524 5528 5531 5534 5538 5542 5547 5551 5555 5559 5564 5569 5575 5581 5587 5594 5599 5605 5611
5530 5528 5525 5524 5519 5516 5514 5512 5510 5508 5507 5506 5506 5505 5505 5504 5504 5504 5504 5505 5505 5506 5508 5509 5510 5512 5515 5518 5521 5525 5529 5533 5537 5541 5545 5550 5555 5561 5567 5573 5579 5585 5591 5596
5525 5522 5520 5518 5514 5511 5508 5507 5504 5502 5501 5499 5498 5498 5498 5497 5496 5495 5495 5496 5496 5497 5497 5498 5499 5501 5503 5505 5508 5511 5515 5519 5523 5527 5531 5536 5542 5547 5553 5559 5565 5572 5577 5583
5520 5516 5514 5514 5509 5505 5503 5501 5498 5496 5494 5493 5491 5491 5492 5489 5488 5488 5487 5487 5487 5487 5488 5488 5489 5490 5491 5493 5496 5499 5502 5505 5509 5513 5518 5523 5528 5533 5539 5545 5551 5557 5563 5569
5515 5511 5509 5507 5503 5500 5499 5497 5493 5490 5488 5486 5485 5484 5484 5482 5481 5480 5479 5479 5478 5478 5478 5478 5479 5479 5480 5482 5484 5486 5488 5492 5495 5500 5504 5509 5514 5519 5525 5530 5537 5543 5549 5554
5510 5507 5506 5500 5497 5495 5493 5489 5487 5484 5482 5480 5479 5477 5476 5475 5473 5472 5472 5471 5470 5469 5469 5469 5469 5469 5470 5472 5473 5474 5476 5479 5483 5486 5491 5495 5501 5506 5511 5517 5522 5528 5534 5539
5505 5503 5498 5494 5491 5488 5485 5483 5480 5478 5476 5474 5473 5471 5469 5468 5466 5465 5464 5463 5462 5461 5461 5461 5460 5460 5461 5462 5462 5463 5465 5467 5470 5474 5478 5482 5488 5493 5498 5503 5509 5514 5520 5525
5498 5496 5492 5488 5484 5482 5479 5476 5474 5472 5470 5468 5466 5464 5463 5461 5460 5458 5457 5456 5454 5453 5453 5452 5452 5452 5452 5452 5453 5454 5455 5457 5459 5462 5466 5470 5475 5480 5485 5490 5495 5500 5506 5511
5492 5489 5485 5482 5478 5475 5472 5470 5467 5465 5463 5461 5459 5457 5456 5454 5453 5451 5450 5448 5447 5446 5445 5445 5444 5444 5443 5443 5444 5445 5446 5447 5449 5451 5455 5458 5463 5467 5472 5477 5482 5487 5492 5497
5486 5482 5478 5476 5472 5469 5466 5463 5460 5458 5456 5454 5452 5450 5449 5447 5446 5444 5443 5441 5440 5439 5438 5437 5437 5436 5436 5435 5436 5436 5437 5438 5440 5442 5444 5448 5452 5456 5460 5465 5470 5474 5479 5484
5479 5475 5471 5468 5465 5462 5459 5456 5453 5451 5449 5447 5444 5442 5441 5440 5438 5437 5436 5434 5433 5432 5431 5430 5429 5429 5428 5428 5428 5429 5429 5430 5431 5433 5435 5438 5441 5445 5449 5454 5458 5462 5467 5471
5472 5468 5465 5462 5458 5455 5452 5449 5447 5444 5442 5439 5437 5435 5434 5432 5431 5430 5429 5427 5426 5425 5424 5423 5422 5422 5421 5421 5421 5421 5422 5423 5424 5425 5427 5429 5432 5435 5439 5443 5447 5450 5455 5459
5466 5462 5458 5455 5452 5448 5445 5442 5440 5437 5434 5432 5430 5428 5427 5425 5424 5423 5422 5420 5419 5418 5417 5416 5416 5415 5414 5414 5414 5414 5415 5416 5417 5418 5419 5421 5423 5426 5429 5432 5436 5439 5443 5447
5460 5456 5452 5449 5445 5442 5439 5436 5433 5430 5427 5425 5423 5421 5420 5418 5417 5416 5415 5414 5413 5411 5410 5410 5409 5409 5408 5408 5408 5408 5408 5409 5410 5410 5411 5413 5414 5417 5419 5422 5425 5428 5432 5435
5454 5450 5446 5443 5439 5436 5432 5429 5426 5423 5420 5417 5416 5414 5413 5412 5411 5410 5408 5407 5406 5405 5404 5403 5403 5403 5403 5403 5403 5403 5403 5403 5403 5403 5404 5405 5406 5408 5410 5412 5415 5418 5421 5424
5447 5443 5440 5436 5432 5429 5425 5422 5419 5416 5413 5410 5409 5407 5406 5405 5404 5403 5402 5401 5400 5399 5398 5397 5397 5396 5396 5397 5397 5396 5396 5396 5396 5397 5397 5397 5398 5399 5401 5403 5405 5407 5410 5413
5441 5437 5433 5429 5426 5422 5419 5415 5412 5409 5406 5403 5401 5400 5398 5397 5396 5395 5395 5394 5393 5393 5392 5391 5390 5390 5390 5390 5390 5390 5390 5389 5389 5389 5390 5390 5391 5392 5393 5394 5396 5398 5400 5402
5435 5431 5427 5423 5419 5415 5412 5408 5405 5402 5399 5396 5394 5392 5391 5390 5389 5388 5387 5387 5386 5385 5385 5384 5384 5384 5383 5383 5383 5383 5383 5382 5382 5382 5383 5383 5383 5384 5385 5386 5388 5389 5391 5393
5430 5425 5421 5417 5413 5409 5405 5401 5398 5395 5392 5389 5387 5385 5384 5383 5382 5381 5380 5379 5378 5378 5377 5377 5377 5377 5377 5376 5376 5376 5376 5375 5375 5375 5376 5376 5376 5376 5377 5378 5379 5380 5382 5383
5424 5419 5415 5411 5406 5402 5398 5394 5391 5387 5384 5382 5380 5378 5376 5375 5374 5373 5372 5372 5371 5370 5370 5370 5370 5369 5369 5369 5369 5369 5369 5368 5368 5368 5368 5368 5369 5369 5369 5370 5370 5371 5373 5374
5417 5413 5409 5404 5400 5396 5392 5388 5384 5381 5378 5375 5373 5371 5369 5368 5367 5366 5365 5364 5363 5363 5363 5362 5362 5362 5362 5362 5362 5361 5361 5361 5361 5361 5361 5361 5361 5361 5361 5362 5362 5363 5364 5366
5411 5406 5402 5398 5394 5389 5385 5381 5378 5374 5371 5369 5366 5364 5362 5361 5360 5359 5358 5357 5356 5356 5356 5355 5355 5355 5355 5354 5354 5354 5353 5353 5353 5352 5352 5352 5353 5353 5353 5353 5354 5355 5356 5357
5404 5400 5396 5392 5387 5383 5379 5375 5372 5368 5365 5362 5360 5358 5356 5354 5353 5352 5351 5350 5349 5349 5349 5348 5348 5348 5348 5347 5347 5346 5346 5345 5345 5344 5344 5344 5344 5344 5344 5345 5345 5346 5347 5348
5398 5394 5389 5385 5381 5377 5373 5370 5366 5363 5359 5356 5354 5351 5349 5348 5346 5345 5344 5343 5342 5342 5342 5341 5341 5341 5341 5340 5340 5339 5338 5338 5337 5337 5336 5336 5336 5336 5337 5337 5338 5338 5339 5340
5392 5388 5383 5379 5375 5371 5367 5364 5360 5357 5354 5351 5348 5345 5343 5341 5340 5338 5337 5336 5336 5335 5335 5334 5334 5334 5333 5333 5332 5332 5331 5331 5330 5330 5329 5329 5329 5329 5329 5329 5330 5331 5331 5332